Location: Spring Creek
(38.2870°N, 100.2160°W)
Time: 22:28:54
(UTC+00:00)

ATLAS 2AS CENTAUR R/B - Pass Details

Date: 08 May 2021
Orbit: 949 x 1263 km, 63.7° (Epoch: 07 May)

Event Time Altitude Azimuth Distance (km) Brightness Sun altitude
Rises 05:43:44 0° 330° (NNW) 4,076 6.7 -33.1°
Reaches altitude 10° 05:46:39 10° 334° (NNW) 3,067 5.9 -33.3°
Maximum altitude 05:53:47 55° 52° (NE) 1,301 3.1 -33.6°
Enters shadow 05:53:52 55° 54° (NE) 1,301 3.1 -33.6°
